Date String (YYYY-MM-DD hh:mm:ss) UTC,Instrument flags,Ambient pressure (hPa),Sample flow (lpm),Bypass flow (lpm),Sample temperature (°C),Ambient temperature (°C),ASC tube jacket temperature (°C),LED temperature (°C),Box temperature (°C),Sample RH (%),Span deviation,Mass concentration (μg/m³),Mass concentration (μg/m³),Mass concentration (μg/m³)
DateTimeUTC,F1_M11,P_M11,Q1_M11,Q2_M11,T1_M11,T2_M11,T3_M11,T4_M11,T5_M11,U1_M11,ZSPAN_M11,X0_M11,X2_M11,X1_M11
2022-05-11 20:00:00,,0819.9,4.99,0.00,29.5,28.2,00.0,38.2,31.3,10.1,0000.0,0020.86,0005.28,0003.05
2022-05-11 20:01:00,,0819.9,5.02,0.00,29.5,28.4,00.0,38.3,31.4,10.0,0000.0,0020.37,0005.23,0003.00
2022-05-11 20:02:00,,0820.0,5.00,0.00,29.5,28.6,00.0,38.3,31.4,09.6,0000.0,0020.39,0005.25,0002.94
2022-05-11 20:03:00,,0819.9,5.00,0.00,29.6,28.7,00.0,38.3,31.5,09.4,0000.0,0019.18,0005.19,0002.86
2022-05-11 20:04:00,,0819.9,5.00,0.00,29.6,28.7,00.0,38.3,31.5,09.6,0000.0,0018.90,0005.11,0002.79
2022-05-11 20:05:00,,0819.9,5.01,0.00,29.6,26.9,00.0,38.4,31.1,10.8,0000.0,0018.60,0004.95,0002.71
2022-05-11 20:06:00,,0819.9,5.00,0.00,29.4,25.3,00.0,38.3,30.8,11.1,0000.0,0018.85,0004.75,0002.65
2022-05-11 20:07:00,,0819.9,4.99,0.00,29.4,25.6,00.0,38.3,30.8,10.9,0000.0,0019.40,0004.70,0002.63
2022-05-11 20:08:00,,0819.8,5.00,0.00,29.3,26.1,00.0,38.3,30.9,12.2,0000.0,0019.77,0004.76,0002.64
2022-05-11 20:09:00,,0819.8,5.00,0.00,29.3,26.5,00.0,38.2,31.0,12.5,0000.0,0020.96,0004.91,0002.70
2022-05-11 20:10:00,,0819.9,5.00,0.00,29.3,27.0,00.0,38.2,31.0,12.9,0000.0,0021.34,0004.98,0002.80
2022-05-11 20:11:00,,0819.8,5.00,0.00,29.3,27.4,00.0,38.2,31.1,11.8,0000.0,0021.77,0005.00,0002.86
2022-05-11 20:12:00,,0819.8,5.00,0.00,29.4,27.8,00.0,38.2,31.2,12.5,0000.0,0022.29,0005.04,0002.93
2022-05-11 20:13:00,,0819.7,4.99,0.00,29.4,28.1,00.0,38.2,31.3,12.7,0000.0,0021.04,0005.06,0003.04
2022-05-11 20:14:00,,0819.7,4.99,0.00,29.5,28.3,00.0,38.2,31.3,12.5,0000.0,0021.53,0005.13,0003.13
2022-05-11 20:15:00,,0819.7,5.00,0.00,29.5,28.5,00.0,38.3,31.4,12.2,0000.0,0023.08,0005.24,0003.18
2022-05-11 20:16:00,,0819.6,5.00,0.00,29.6,28.6,00.0,38.3,31.5,12.3,0000.0,0023.54,0005.37,0003.25
2022-05-11 20:17:00,,0819.6,5.01,0.00,29.6,28.8,00.0,38.3,31.5,12.6,0000.0,0024.11,0005.49,0003.29
2022-05-11 20:18:00,,0819.6,5.00,0.00,29.6,27.7,00.0,38.3,31.3,12.3,0000.0,0024.38,0005.52,0003.32
2022-05-11 20:19:00,,0819.6,5.01,0.00,29.5,25.7,00.0,38.3,30.9,11.2,0000.0,0023.96,0005.51,0003.34
2022-05-11 20:20:00,,0819.5,5.00,0.00,29.4,25.5,00.0,38.3,30.8,11.5,0000.0,0022.63,0005.45,0003.33
2022-05-11 20:21:00,,0819.5,5.00,0.00,29.3,25.9,00.0,38.3,30.9,11.4,0000.0,0021.32,0005.35,0003.30
2022-05-11 20:22:00,,0819.6,5.01,0.00,29.3,26.4,00.0,38.2,30.9,11.8,0000.0,0021.15,0005.34,0003.28
2022-05-11 20:23:00,,0819.7,5.00,0.00,29.3,26.9,00.0,38.2,31.0,11.1,0000.0,0021.34,0005.30,0003.26
2022-05-11 20:24:00,,0819.8,4.99,0.00,29.3,27.3,00.0,38.2,31.1,10.6,0000.0,0021.23,0005.27,0003.22
2022-05-11 20:25:00,,0819.8,4.99,0.00,29.4,27.7,00.0,38.2,31.2,10.9,0000.0,0020.95,0005.24,0003.18
2022-05-11 20:26:00,,0819.8,5.00,0.00,29.4,28.0,00.0,38.2,31.3,10.9,0000.0,0019.71,0005.07,0003.14
2022-05-11 20:27:00,,0819.7,5.00,0.00,29.5,28.2,00.0,38.2,31.3,11.1,0000.0,0018.89,0005.06,0003.08
2022-05-11 20:28:00,,0819.7,5.00,0.00,29.5,28.4,00.0,38.2,31.4,10.9,0000.0,0017.90,0005.00,0003.00
2022-05-11 20:29:00,,0819.7,5.00,0.00,29.6,28.6,00.0,38.3,31.5,13.6,0000.0,0016.73,0005.07,0003.09
2022-05-11 20:30:00,,0819.6,4.99,0.00,29.6,28.1,00.0,38.3,31.3,14.0,0000.0,0018.33,0005.27,0003.29
2022-05-11 20:31:00,,0819.5,5.00,0.00,29.5,26.1,00.0,38.3,30.9,13.7,0000.0,0020.47,0005.47,0003.45
2022-05-11 20:32:00,,0819.6,5.01,0.00,29.4,25.4,00.0,38.3,30.8,13.9,0000.0,0022.73,0005.70,0003.58
2022-05-11 20:33:00,,0819.5,5.00,0.00,29.3,25.8,00.0,38.2,30.8,12.6,0000.0,0023.72,0005.82,0003.69
2022-05-11 20:34:00,,0819.5,4.99,0.00,29.2,26.3,00.0,38.2,30.8,13.8,0000.0,0024.47,0006.01,0003.82
2022-05-11 20:35:00,,0819.6,5.01,0.00,29.2,26.8,00.0,38.2,30.9,13.9,0000.0,0025.10,0006.33,0004.00
2022-05-11 20:36:00,,0819.6,5.01,0.00,29.3,27.2,00.0,38.2,31.0,14.0,0000.9,0026.77,0006.64,0004.17
2022-05-11 20:37:00,,0819.7,5.00,0.00,29.3,27.6,00.0,38.2,31.1,12.6,0000.7,0027.20,0006.84,0004.31
2022-05-11 20:38:00,,0819.7,4.99,0.00,29.3,27.9,00.0,38.2,31.2,12.4,0001.3,0027.29,0006.95,0004.40
2022-05-11 20:39:00,,0819.6,4.99,0.00,29.4,28.2,00.0,38.2,31.3,11.9,0002.4,0027.38,0007.05,0004.51
2022-05-11 20:40:00,,0819.5,5.00,0.00,29.5,28.4,00.0,38.2,31.3,11.7,0002.5,0027.22,0007.07,0004.55
2022-05-11 20:41:00,,0819.5,5.00,0.00,29.5,28.5,00.0,38.2,31.4,12.4,0002.4,0025.93,0006.95,0004.46
2022-05-11 20:42:00,,0819.6,5.01,0.00,29.6,28.7,00.0,38.3,31.5,12.1,0002.5,0024.19,0006.81,0004.33
2022-05-11 20:43:00,,0819.5,4.99,0.00,29.6,27.7,00.0,38.3,31.3,11.2,0001.4,0021.80,0006.59,0004.22
2022-05-11 20:44:00,,0819.4,5.00,0.00,29.4,25.7,00.0,38.3,30.9,11.5,0000.1,0021.23,0006.49,0004.15
2022-05-11 20:45:00,,0819.4,5.01,0.00,29.3,25.5,00.0,38.3,30.8,11.0,0000.0,0019.91,0006.39,0004.06
2022-05-11 20:46:00,,0819.4,5.00,0.00,29.3,25.9,00.0,38.2,30.8,10.4,0000.0,0018.52,0006.14,0003.93
2022-05-11 20:47:00,,0819.4,4.99,0.00,29.2,26.4,00.0,38.2,30.9,10.2,0000.0,0017.12,0005.79,0003.77
2022-05-11 20:48:00,,0819.4,5.01,0.00,29.2,26.8,00.0,38.2,31.0,10.6,0000.0,0016.84,0005.66,0003.67
2022-05-11 20:49:00,,0819.4,5.00,0.00,29.3,27.3,00.0,38.1,31.0,11.4,0000.0,0016.99,0005.62,0003.63
2022-05-11 20:50:00,,0819.4,5.01,0.00,29.3,27.6,00.0,38.2,31.1,11.3,0000.0,0016.71,0005.62,0003.61
2022-05-11 20:51:00,,0819.4,5.00,0.00,29.4,28.0,00.0,38.2,31.2,11.8,0000.0,0017.14,0005.70,0003.62
2022-05-11 20:52:00,,0819.4,5.00,0.00,29.4,28.2,00.0,38.2,31.3,11.1,0000.0,0017.67,0005.67,0003.59
2022-05-11 20:53:00,,0819.4,5.01,0.00,29.4,27.9,00.0,37.3,29.3,10.5,0000.0,0018.38,0005.66,0003.56
2022-05-11 20:54:00,,0819.4,5.01,0.00,29.5,28.6,00.0,38.2,31.4,10.3,0000.0,0018.06,0005.62,0003.54
2022-05-11 20:55:00,,0819.4,5.01,0.00,29.5,28.2,00.0,38.3,31.3,10.3,0000.0,0016.90,0005.53,0003.50
2022-05-11 20:56:00,,0819.3,5.00,0.00,29.4,26.1,00.0,38.3,30.9,09.8,0000.0,0016.73,0005.43,0003.48
2022-05-11 20:57:00,,0819.2,4.99,0.00,29.3,25.3,00.0,38.2,30.7,10.6,0000.0,0017.72,0005.40,0003.47
2022-05-11 20:58:00,,0819.2,5.00,0.00,29.2,25.7,00.0,38.2,30.8,09.9,0000.0,0017.65,0005.43,0003.45
2022-05-11 20:59:00,,0819.2,5.00,0.00,29.2,26.2,00.0,38.2,30.8,09.1,0000.0,0017.33,0005.42,0003.41
